CZ-6A DEB

Satellite information

Favourite Embed

Satellite Type and Status

DEBRISIN ORBIT

Key statistics

Satellite CZ-6A DEB at a glance.

Uptime

1130

Days in orbit

Revolutions

≈ 14.8

Per day

Orbit

SSO

Sun Synchronous Orbit

Inclination

98.5

Latest

Satellite identification and parameters

Extended collection of information and parameters for CZ-6A DEB.

Object identification

Identified? True

Debris? True

Object name: CZ-6A DEB

International designator: 2022-151MS

Object number (NORAD): 54592

Object ID (CCSDS): 54592

Country: PEOPLES REPUBLIC OF CHINA (PRC)

Current information (Y/N): Y

RCS size: SMALL

Orbital parameters

Period: 97.593 minutes

Inclination: 98.5347 deg

SMA: 7021.665 km

Apoapsis: 678.926 km

Periapsis: 608.135 km

RAAN: 25.4356 deg

Eccentricy: 0.00504086

Argument of periapsis: 139.188 deg

Mean anomaly: 221.312 deg

Mean motion: 14.75511368 rev/day

Mean motion (dot): 0.0002562 rev/day2

B* drag term: 0.0036825811 1/REarth

Two-line elements (TLE)

Creation date: Dec. 14, 2025, 6:24 p.m.

Reference frame: TEME

Reference center: EARTH

Epoch: Dec. 14, 2025, 1:19 a.m. UTC

TLE line 0: 0 CZ-6A DEB

TLE line 1: 1 54592U 22151MS 25348.05539978 .00025620 00000-0 36826-2 0 9996

TLE line 2: 2 54592 98.5347 25.4356 0050409 139.1880 221.3120 14.75511368162692

Live tracking on map

Real-time ground track for satellite CZ-6A DEB.

In-orbit conjunctions

A list of the most updated potential collisions computed for object CZ-6A DEB.

Target Orbit TCA Probability of collision Miss distance Type
XSS 10 LEO 2025-08-11 16:46:04 0.0004885655 451.0 (m) PAYLOAD
FENGYUN 1C DEB SSO 2024-07-04 14:53:55 0.0001135697 71.0 (m) DEBRIS

Associated space launch

Chinese satellite reported for atmospheric/ocean/environmental/spatial parameter research purposes, details TBD.

CZ-6A DEB was lifted into orbit during the mission ‘Long March 6A | Yunhai 3’, on board a Long March 6A space rocket.

The launch took place on Nov. 11, 2022, 10:52 p.m. from Launch Complex 9A.

For more information about the launch, click the button.

Launch to space Long March 6A | Yunhai 3
Long March 6A | Yunhai 3

Agency: N/A

Status: Launch Successful

Launch date: Nov. 11, 2022, 10:52 p.m. UTC

Rocket: Long March 6A

Launch pad: Launch Complex 9A

Location: Taiyuan Satellite Launch Center, People's Republic of China

...

Latest news about this satellite

There are no fresh news available about this satellite. Check back as we update our databases every day.


Newsletter sign-up

Weekly statistics, charts and insights to help you stay on top of the space industry.